Location: Fort Wayne
(41.1310°N, 85.1290°W)
Time: 23:55:07
(UTC-04:00)

Cosmos 1000 Rocket - Visible Passes

Search period start: 19 August 2017 00:00
Search period end: 29 August 2017 00:00
Orbit: 953 x 993 km, 82.9° (Epoch: 19 August)

Date Brightness Start Highest point End Pass type
(mag) Time Alt. Az. Time Alt. Az. Time Alt. Az.
19 Aug 4.9 03:06:40 10° N 03:12:50 57° E 03:12:56 57° E visible
19 Aug 5.8 04:53:06 10° NW 04:57:31 21° W 04:57:31 21° W visible
20 Aug 6.6 01:47:55 10° NNE 01:51:27 15° ENE 01:52:27 15° ENE visible
20 Aug 4.5 03:31:16 10° N 03:37:02 75° NW 03:37:02 75° NW visible
20 Aug 6.4 05:20:08 10° WNW 05:21:36 11° WNW 05:21:36 11° WNW visible
21 Aug 6.0 02:11:20 10° NNE 02:16:33 27° ENE 02:16:34 27° ENE visible
21 Aug 5.0 03:56:09 10° NNW 04:01:09 43° WNW 04:01:09 43° WNW visible
22 Aug 5.3 02:35:28 10° N 02:40:43 45° NE 02:40:43 45° NE visible
22 Aug 5.8 04:21:26 10° NNW 04:25:17 25° WNW 04:25:17 25° WNW visible
23 Aug 6.8 01:17:26 10° NE 01:19:57 12° ENE 01:20:18 12° ENE visible
23 Aug 4.9 02:59:57 10° N 03:04:53 58° N 03:04:53 58° N visible
23 Aug 6.4 04:47:36 10° NW 04:49:28 13° WNW 04:49:28 13° WNW visible
24 Aug 6.3 01:40:20 10° NNE 01:44:29 22° ENE 01:44:29 22° ENE visible
24 Aug 5.3 03:24:43 10° NNW 03:29:05 43° NW 03:29:05 43° NW visible
25 Aug 5.8 02:04:17 10° N 02:08:42 34° NE 02:08:42 34° NE visible
25 Aug 5.8 03:49:52 10° NNW 03:53:17 26° NW 03:53:17 26° NW visible
26 Aug 5.4 02:28:40 10° N 02:32:56 44° NNE 02:32:56 44° NNE visible
26 Aug 6.4 04:15:37 10° NW 04:17:31 15° WNW 04:17:31 15° WNW visible
27 Aug 6.5 01:09:25 10° NNE 01:12:35 18° NE 01:12:35 18° NE visible
27 Aug 5.5 02:53:21 10° NNW 02:57:11 39° NNW 02:57:11 39° NNW visible
28 Aug 6.1 01:33:10 10° NNE 01:36:50 27° NE 01:36:50 27° NE visible
28 Aug 6.0 03:18:21 10° NNW 03:21:26 27° NW 03:21:26 27° NW visible
